This is the latest recevied weather packets stored in our database for station/object F4IRV-1. If no packets are shown the sender has not sent any weather packets the latest 10 day(s).
| Time | Temp. | Humidity | Pressure | Rain* | Wind** | Luminosity | Snow |
|---|---|---|---|---|---|---|---|
| 1777871853 | 22.78° C | 45% | 1002.8 hPa | - | - | - | - |
| 1777870055 | 23.33° C | 45% | 1002.7 hPa | - | - | - | - |
| 1777868253 | 23.33° C | 45% | 1002.7 hPa | - | - | - | - |
| 1777864653 | 23.33° C | 45% | 1002.9 hPa | - | - | - | - |
| 1777862854 | 23.33° C | 45% | 1003.1 hPa | - | - | - | - |
| 1777859253 | 23.89° C | 45% | 1003 hPa | - | - | - | - |
| 1777855651 | 23.89° C | 45% | 1003 hPa | - | - | - | - |
| 1777853851 | 23.89° C | 45% | 1003.1 hPa | - | - | - | - |
| 1777852051 | 23.89° C | 45% | 1003.3 hPa | - | - | - | - |
| 1777850251 | 24.44° C | 45% | 1003.6 hPa | - | - | - | - |
| 1777848450 | 24.44° C | 45% | 1003.5 hPa | - | - | - | - |
| 1777846649 | 24.44° C | 45% | 1003.5 hPa | - | - | - | - |
| 1777844850 | 24.44° C | 45% | 1003.3 hPa | - | - | - | - |
| 1777843052 | 25° C | 46% | 1003.4 hPa | - | - | - | - |
| 1777841250 | 25° C | 45% | 1003.4 hPa | - | - | - | - |
| 1777839449 | 25° C | 45% | 1003 hPa | - | - | - | - |
| 1777835848 | 25.56° C | 45% | 1002.1 hPa | - | - | - | - |
| 1777832248 | 25° C | 45% | 1002 hPa | - | - | - | - |
| 1777830448 | 25.56° C | 45% | 1001.8 hPa | - | - | - | - |
| 1777828646 | 25.56° C | 44% | 1001.9 hPa | - | - | - | - |
| 1777826846 | 25.56° C | 44% | 1001.9 hPa | - | - | - | - |
| 1777825047 | 25° C | 45% | 1001.8 hPa | - | - | - | - |
| 1777823247 | 24.44° C | 47% | 1001.8 hPa | - | - | - | - |
| 1777821448 | 24.44° C | 47% | 1002 hPa | - | - | - | - |
| 1777819646 | 24.44° C | 47% | 1002.6 hPa | - | - | - | - |
* Rain since midnight (hover to see other rain measurements)
** Current wind speed in m/s (hover to see current wind gust speed)